Location: ????????
(60.4333°N, 46.4710°E)
Time: 19:08:49
(UTC+00:00)

Cosmos 1933 Rocket - Pass Details

Date: 25 November 2020
Orbit: 606 x 631 km, 82.5° (Epoch: 16 January)

Event Time Altitude Azimuth Distance (km) Brightness Sun altitude
Rises 15:51:01 0° 344° (NNW) 2,937 7.3 -26.7°
Reaches altitude 10° 15:53:18 10° 339° (NNW) 2,027 6.5 -26.9°
Maximum altitude 15:57:39 51° 264° (W) 802 4.4 -27.5°
Enters shadow 15:58:54 39° 216° (SW) 962 4.7 -27.6°
